Location: Nairn
(57.5833°N, 3.8667°W)
Time: 16:17:00
(UTC+00:00)

Vanguard 1 - All Passes

Search period start: 26 November 2020 00:00
Search period end: 06 December 2020 00:00
Orbit: 650 x 3833 km, 34.2° (Epoch: 26 November)

Date Brightness Start Highest point End Pass type
(mag) Time Alt. Az. Time Alt. Az. Time Alt. Az.
26 Nov - 05:24:45 10° SE 05:25:07 10° SE 05:25:30 10° SE visible
26 Nov - 07:36:47 10° SSW 07:43:40 21° SSE 07:53:37 10° SE visible
26 Nov - 09:55:09 10° SW 10:03:47 22° S 10:15:56 10° SSE daylight
26 Nov - 12:18:40 10° SW 12:24:31 13° SSW 12:31:14 10° SSW daylight
27 Nov - 05:41:57 10° S 05:45:09 12° SSE 05:48:57 10° SE visible
27 Nov - 07:57:04 10° SW 08:04:00 21° S 08:14:01 10° SE daylight
27 Nov - 10:16:12 10° SW 10:24:15 19° SSW 10:35:07 10° SSE daylight
28 Nov - 06:01:12 10° S 06:05:15 14° SSE 06:10:22 10° SE visible
28 Nov - 08:17:32 10° SW 08:24:23 21° S 08:34:11 10° SE daylight
28 Nov - 10:37:41 10° SW 10:44:41 16° SSW 10:53:39 10° S daylight
29 Nov - 06:20:58 10° SSW 06:25:27 15° SSE 06:31:19 10° SE visible
29 Nov - 08:38:12 10° SW 08:44:49 19° S 08:54:02 10° SSE daylight
29 Nov - 11:00:07 10° SW 11:05:07 13° SSW 11:11:00 10° S daylight
30 Nov - 06:41:02 10° SSW 06:45:43 16° SSE 06:51:56 10° SE visible
30 Nov - 08:59:08 10° SW 09:05:15 17° S 09:13:29 10° SSE daylight
01 Dec - 07:01:20 10° SSW 07:06:03 16° S 07:12:17 10° SE visible
01 Dec - 09:20:30 10° SW 09:25:43 14° SSW 09:32:18 10° SSE daylight
02 Dec - 07:21:54 10° SSW 07:26:26 15° S 07:32:17 10° SSE visible
02 Dec - 09:42:57 10° SW 09:46:11 11° SSW 09:49:52 10° S daylight
03 Dec - 05:26:35 10° S 05:27:55 11° SSE 05:29:22 10° SSE visible
03 Dec - 07:42:49 10° SSW 07:46:51 14° S 07:51:53 10° SSE visible
04 Dec - 05:46:23 10° S 05:48:12 11° SSE 05:50:13 10° SSE visible
04 Dec - 08:04:20 10° SSW 08:07:17 12° S 08:10:43 10° S daylight
05 Dec - 06:06:53 10° S 06:08:32 11° S 06:10:20 10° SSE visible
